EW9525 Weather Reports


time (UTC)temp
C
wind
direction
speed
KPH
gust
KPH
rain 1hr
cm
rain 24hr
cm
rain mn
cm
humidity
%
barometer
mb
20260509233056 22 5 29.0 41.8 0.00 0.00 0.00 29 1008.9
20260509231558 23 20 24.1 35.4 0.00 0.00 0.00 28 1008.8
20260509230059 24 359 24.1 40.2 0.00 0.00 0.00 27 1008.5
20260509224559 24 6 24.1 40.2 0.00 0.00 0.00 28 1008.3
20260509223054 25 352 25.7 38.6 0.00 0.00 0.00 27 1008.0
20260509221552 25 8 32.2 45.1 0.00 0.00 0.00 27 1007.9
20260509220055 26 335 25.7 37.0 0.00 0.00 0.00 28 1007.7
20260509214558 26 20 25.7 38.6 0.00 0.00 0.00 28 1007.6
20260509213113 26 317 12.9 27.4 0.00 0.00 0.00 28 1007.6
20260509211553 26 327 14.5 27.4 0.00 0.00 0.00 30 1007.6
20260509204548 26 322 20.9 30.6 0.00 0.00 0.00 29 1007.7
20260509203048 26 329 17.7 29.0 0.00 0.00 0.00 29 1007.7
20260509201547 25 326 22.5 35.4 0.00 0.00 0.00 30 1007.6
20260509200047 26 323 25.7 37.0 0.00 0.00 0.00 30 1007.3
20260509194547 25 14 24.1 35.4 0.00 0.00 0.00 28 1007.5
20260509193045 26 8 25.7 35.4 0.00 0.00 0.00 29 1007.3
20260509191544 25 41 19.3 27.4 0.00 0.00 0.00 30 1007.3
20260509190043 25 43 14.5 30.6 0.00 0.00 0.00 32 1007.3
20260509184551 25 349 14.5 30.6 0.00 0.00 0.00 33 1007.2
20260509183038 24 8 19.3 25.7 0.00 0.00 0.00 33 1007.3
20260509181549 23 338 16.1 27.4 0.00 0.00 0.00 34 1007.5
20260509180032 22 6 14.5 24.1 0.00 0.00 0.00 35 1007.6
20260509174528 21 6 12.9 22.5 0.00 0.00 0.00 37 1007.8
20260509173026 21 21 12.9 20.9 0.00 0.00 0.00 38 1007.8
20260509171524 21 357 12.9 19.3 0.00 0.00 0.00 39 1008.1
20260509170022 20 20 11.3 22.5 0.00 0.00 0.00 42 1008.2
20260509164531 19 348 9.7 16.1 0.00 0.00 0.00 45 1008.2
20260509163017 18 8 6.4 14.5 0.00 0.00 0.00 45 1008.2
20260509161512 18 356 6.4 12.9 0.00 0.00 0.00 47 1008.2
20260509160010 17 349 4.8 11.3 0.00 0.00 0.00 53 1008.4
20260509154508 16 338 9.7 12.9 0.00 0.00 0.00 55 1008.6
20260509153007 16 343 1.6 3.2 0.00 0.00 0.00 53 1008.6
20260509151507 16 307 0.0 3.2 0.00 0.00 0.00 58 1008.6
20260509150006 16 156 0.0 1.6 0.00 0.00 0.00 50 1008.6
20260509144505 16 174 1.6 8.0 0.00 0.00 0.00 51 1008.7
20260509143005 16 195 3.2 8.0 0.00 0.00 0.00 51 1008.8
20260509141502 16 150 4.8 8.0 0.00 0.00 0.00 56 1009.0
20260509140105 15 176 4.8 9.7 0.00 0.00 0.00 58 1009.0
20260509134556 15 153 6.4 11.3 0.00 0.00 0.00 59 1009.0
20260509133052 13 169 6.4 16.1 0.00 0.00 0.00 62 1008.9
20260509131550 13 209 8.0 14.5 0.00 0.00 0.00 60 1008.9
20260509130047 12 218 6.4 14.5 0.00 0.00 0.00 63 1008.8
20260509124544 12 217 4.8 16.1 0.00 0.00 0.00 63 1008.8
20260509123040 11 259 3.2 11.3 0.00 0.00 0.00 69 1008.7
20260509121540 11 176 6.4 8.0 0.00 0.00 0.00 71 1008.4
20260509120038 10 146 0.0 4.8 0.00 0.00 0.00 74 1008.4
20260509114535 10 193 3.2 8.0 0.00 0.00 0.00 73 1008.4
20260509113034 10 179 9.7 14.5 0.00 0.00 0.00 72 1007.9
20260509111533 9 172 4.8 8.0 0.00 0.00 0.00 73 1008.3
20260509110039 10 189 3.2 12.9 0.00 0.00 0.00 69 1008.2
20260509104534 8 242 3.2 8.0 0.00 0.00 0.00 70 1008.2
20260509103033 7 158 1.6 4.8 0.00 0.00 0.00 74 1008.0
20260509101539 7 191 1.6 3.2 0.00 0.00 0.00 75 1008.2
20260509100026 7 161 1.6 4.8 0.00 0.00 0.00 71 1008.1
20260509094528 9 198 1.6 6.4 0.00 0.00 0.00 63 1008.1
20260509093025 9 216 1.6 4.8 0.00 0.00 0.00 61 1008.2
20260509091529 9 227 4.8 9.7 0.00 0.00 0.00 62 1008.3
20260509090023 9 209 3.2 6.4 0.00 0.00 0.00 63 1008.2
20260509084528 8 259 1.6 4.8 0.00 0.00 0.00 65 1008.4
20260509083024 9 219 1.6 6.4 0.00 0.00 0.00 63 1008.1
20260509081520 8 211 1.6 3.2 0.00 0.00 0.00 63 1008.1
20260509080017 8 221 1.6 4.8 0.00 0.00 0.00 65 1008.3
20260509074518 7 200 1.6 4.8 0.00 0.00 0.00 66 1008.3
20260509073025 7 202 0.0 0.0 0.00 0.00 0.00 67 1008.5
20260509071512 8 222 0.0 4.8 0.00 0.00 0.00 65 1008.6
20260509070010 7 117 0.0 3.2 0.00 0.00 0.00 65 1008.8
20260509064508 8 186 6.4 9.7 0.00 0.00 0.00 61 1008.7
20260509063013 8 199 4.8 8.0 0.00 0.00 0.00 62 1008.6
20260509061504 9 198 4.8 8.0 0.00 0.00 0.00 58 1008.8
20260509060002 10 215 6.4 9.7 0.00 0.00 0.00 54 1008.7
20260509054614 10 192 4.8 8.0 0.00 0.00 0.00 56 1008.7
20260509053104 10 200 6.4 9.7 0.00 0.00 0.00 56 1008.8
20260509051557 10 191 4.8 9.7 0.00 0.00 0.00 56 1009.0
20260509050057 10 193 4.8 8.0 0.00 0.00 0.00 56 1009.0
20260509044554 11 200 6.4 9.7 0.00 0.00 0.00 51 1009.1
20260509043054 10 198 4.8 8.0 0.00 0.00 0.00 51 1009.1
20260509041555 11 177 6.4 8.0 0.00 0.00 0.00 48 1009.1
20260509040121 11 195 4.8 8.0 0.00 0.00 0.00 48 1009.1
20260509034557 11 195 6.4 8.0 0.00 0.00 0.00 46 1008.9
20260509033053 12 191 4.8 6.4 0.00 0.00 0.00 43 1008.9
20260509031553 13 177 4.8 6.4 0.00 0.00 0.00 39 1008.7
20260509030051 20 198 0.0 0.0 0.00 0.00 0.00 27 1008.7
20260509024550 19 243 0.0 3.2 0.00 0.00 0.00 26 1008.5
20260509023049 19 241 0.0 1.6 0.00 0.00 0.00 27 1008.4
20260509021549 19 252 0.0 3.2 0.00 0.00 0.00 27 1008.3
20260509020048 20 245 0.0 4.8 0.00 0.00 0.00 27 1008.1
20260509014547 20 264 4.8 8.0 0.00 0.00 0.00 27 1007.9
20260509013051 20 266 6.4 8.0 0.00 0.00 0.00 28 1007.8
20260509011556 19 280 3.2 6.4 0.00 0.00 0.00 30 1007.6
20260509010049 21 291 1.6 9.7 0.00 0.00 0.00 32 1007.7
20260509004604 21 293 9.7 20.9 0.00 0.00 0.00 26 1007.6
20260509003046 22 286 8.0 19.3 0.00 0.00 0.00 27 1007.6
20260509001544 22 283 11.3 19.3 0.00 0.00 0.00 26 1007.4
20260509000046 22 301 16.1 24.1 0.00 0.00 0.00 25 1007.5
20260508234543 22 238 6.4 16.1 0.00 0.00 0.00 26 1007.5